| time (UTC) | temp F | wind direction | speed MPH | gust MPH | rain 1hr in | rain 24hr in | rain mn in | humidity % | barometer mb |
| 20260905203026 | 103 | 216 | 2.0 | 5.0 | 0.00 | 0.00 | 0.00 | 35 | 1012.1 |
| 20260905202524 | 103 | 220 | 3.0 | 6.0 | 0.00 | 0.00 | 0.00 | 35 | 1012.1 |
| 20260905202023 | 102 | 230 | 3.0 | 7.0 | 0.00 | 0.00 | 0.00 | 36 | 1012.3 |
| 20260905201521 | 102 | 197 | 3.0 | 7.0 | 0.00 | 0.00 | 0.00 | 36 | 1012.4 |
| 20260905201018 | 102 | 195 | 2.0 | 6.0 | 0.00 | 0.00 | 0.00 | 37 | 1012.4 |
| 20260905200516 | 100 | 144 | 2.0 | 6.0 | 0.00 | 0.00 | 0.00 | 39 | 1012.4 |
| 20260905200035 | 99 | 89 | 3.0 | 6.0 | 0.00 | 0.00 | 0.00 | 40 | 1012.5 |
| 20260905195533 | 99 | 81 | 4.0 | 8.0 | 0.00 | 0.00 | 0.00 | 40 | 1012.7 |
| 20260905195032 | 99 | 58 | 3.0 | 9.0 | 0.00 | 0.00 | 0.00 | 39 | 1012.7 |
| 20260905194529 | 100 | 114 | 3.0 | 7.0 | 0.00 | 0.00 | 0.00 | 39 | 1012.9 |
| 20260905194028 | 100 | 153 | 3.0 | 10.0 | 0.00 | 0.00 | 0.00 | 38 | 1013.0 |
| 20260905193526 | 98 | 153 | 2.0 | 5.0 | 0.00 | 0.00 | 0.00 | 40 | 1013.1 |
| 20260905193043 | 99 | 85 | 4.0 | 7.0 | 0.00 | 0.00 | 0.00 | 40 | 1013.1 |
| 20260905192522 | 99 | 117 | 4.0 | 7.0 | 0.00 | 0.00 | 0.00 | 39 | 1013.3 |
| 20260905192020 | 99 | 95 | 4.0 | 9.0 | 0.00 | 0.00 | 0.00 | 39 | 1013.3 |
| 20260905191519 | 100 | 162 | 4.0 | 7.0 | 0.00 | 0.00 | 0.00 | 38 | 1013.4 |
| 20260905191017 | 99 | 183 | 3.0 | 11.0 | 0.00 | 0.00 | 0.00 | 40 | 1013.5 |
| 20260905190516 | 98 | 63 | 3.0 | 13.0 | 0.00 | 0.00 | 0.00 | 42 | 1013.4 |
| 20260905190035 | 97 | 54 | 2.0 | 6.0 | 0.00 | 0.00 | 0.00 | 43 | 1013.5 |
| 20260905185533 | 98 | 95 | 3.0 | 6.0 | 0.00 | 0.00 | 0.00 | 41 | 1013.6 |
| 20260905185032 | 98 | 144 | 4.0 | 20.0 | 0.00 | 0.00 | 0.00 | 41 | 1013.7 |
| 20260905184530 | 98 | 98 | 3.0 | 6.0 | 0.00 | 0.00 | 0.00 | 42 | 1013.7 |
| 20260905184028 | 98 | 105 | 3.0 | 7.0 | 0.00 | 0.00 | 0.00 | 42 | 1013.8 |
| 20260905183525 | 98 | 125 | 3.0 | 6.0 | 0.00 | 0.00 | 0.00 | 41 | 1013.9 |
| 20260905183044 | 99 | 130 | 3.0 | 9.0 | 0.00 | 0.00 | 0.00 | 40 | 1014.0 |
| 20260905182522 | 98 | 232 | 2.0 | 6.0 | 0.00 | 0.00 | 0.00 | 41 | 1014.2 |
| 20260905182020 | 98 | 220 | 4.0 | 8.0 | 0.00 | 0.00 | 0.00 | 41 | 1014.2 |
| 20260905181518 | 98 | 95 | 2.0 | 7.0 | 0.00 | 0.00 | 0.00 | 43 | 1014.2 |
| 20260905181016 | 97 | 115 | 3.0 | 7.0 | 0.00 | 0.00 | 0.00 | 43 | 1014.5 |
| 20260905180554 | 98 | 127 | 4.0 | 11.0 | 0.00 | 0.00 | 0.00 | 42 | 1014.4 |
| 20260905180032 | 97 | 109 | 2.0 | 6.0 | 0.00 | 0.00 | 0.00 | 44 | 1014.5 |
| 20260905175530 | 96 | 122 | 3.0 | 9.0 | 0.00 | 0.00 | 0.00 | 44 | 1014.6 |
| 20260905175028 | 98 | 158 | 3.0 | 6.0 | 0.00 | 0.00 | 0.00 | 43 | 1014.7 |
| 20260905174527 | 97 | 120 | 3.0 | 8.0 | 0.00 | 0.00 | 0.00 | 44 | 1014.6 |
| 20260905174045 | 96 | 116 | 4.0 | 9.0 | 0.00 | 0.00 | 0.00 | 44 | 1014.7 |
| 20260905173523 | 97 | 132 | 4.0 | 12.0 | 0.00 | 0.00 | 0.00 | 43 | 1014.7 |
| 20260905173021 | 96 | 109 | 2.0 | 6.0 | 0.00 | 0.00 | 0.00 | 44 | 1014.9 |
| 20260905172519 | 95 | 89 | 3.0 | 7.0 | 0.00 | 0.00 | 0.00 | 45 | 1014.9 |
| 20260905172017 | 97 | 136 | 3.0 | 7.0 | 0.00 | 0.00 | 0.00 | 43 | 1015.0 |
| 20260905171555 | 96 | 230 | 3.0 | 8.0 | 0.00 | 0.00 | 0.00 | 44 | 1015.0 |
| 20260905171053 | 97 | 219 | 3.0 | 8.0 | 0.00 | 0.00 | 0.00 | 43 | 1015.0 |
| 20260905170531 | 96 | 194 | 2.0 | 5.0 | 0.00 | 0.00 | 0.00 | 43 | 1015.1 |
| 20260905170050 | 95 | 153 | 3.0 | 6.0 | 0.00 | 0.00 | 0.00 | 44 | 1015.0 |
| 20260905165527 | 95 | 80 | 3.0 | 5.0 | 0.00 | 0.00 | 0.00 | 46 | 1015.2 |
| 20260905165025 | 96 | 225 | 4.0 | 9.0 | 0.00 | 0.00 | 0.00 | 45 | 1015.1 |
| 20260905164523 | 96 | 191 | 2.0 | 4.0 | 0.00 | 0.00 | 0.00 | 44 | 1015.2 |
| 20260905164042 | 94 | 211 | 2.0 | 4.0 | 0.00 | 0.00 | 0.00 | 47 | 1015.1 |
| 20260905163520 | 95 | 128 | 2.0 | 6.0 | 0.00 | 0.00 | 0.00 | 46 | 1015.3 |
| 20260905163039 | 94 | 222 | 4.0 | 8.0 | 0.00 | 0.00 | 0.00 | 47 | 1015.2 |
| 20260905162516 | 95 | 200 | 2.0 | 7.0 | 0.00 | 0.00 | 0.00 | 47 | 1015.3 |
| 20260905162034 | 94 | 227 | 2.0 | 5.0 | 0.00 | 0.00 | 0.00 | 48 | 1015.2 |
| 20260905161532 | 94 | 194 | 3.0 | 5.0 | 0.00 | 0.00 | 0.00 | 48 | 1015.3 |
| 20260905161051 | 93 | 223 | 2.0 | 6.0 | 0.00 | 0.00 | 0.00 | 48 | 1015.2 |
| 20260905160528 | 93 | 239 | 3.0 | 5.0 | 0.00 | 0.00 | 0.00 | 49 | 1015.2 |
| 20260905160046 | 92 | 238 | 3.0 | 5.0 | 0.00 | 0.00 | 0.00 | 50 | 1015.1 |
| 20260905155524 | 93 | 222 | 3.0 | 6.0 | 0.00 | 0.00 | 0.00 | 50 | 1015.3 |
| 20260905155023 | 92 | 227 | 2.0 | 5.0 | 0.00 | 0.00 | 0.00 | 50 | 1015.3 |
| 20260905154521 | 92 | 251 | 2.0 | 4.0 | 0.00 | 0.00 | 0.00 | 51 | 1015.5 |
| 20260905154040 | 91 | 236 | 3.0 | 6.0 | 0.00 | 0.00 | 0.00 | 52 | 1015.4 |
| 20260905153518 | 91 | 280 | 3.0 | 8.0 | 0.00 | 0.00 | 0.00 | 52 | 1015.2 |
| 20260905153016 | 91 | 273 | 3.0 | 5.0 | 0.00 | 0.00 | 0.00 | 53 | 1015.1 |
| 20260905152534 | 90 | 233 | 4.0 | 6.0 | 0.00 | 0.00 | 0.00 | 54 | 1015.1 |
| 20260905152032 | 90 | 249 | 2.0 | 8.0 | 0.00 | 0.00 | 0.00 | 54 | 1015.1 |
| 20260905151530 | 90 | 248 | 3.0 | 7.0 | 0.00 | 0.00 | 0.00 | 54 | 1015.1 |
| 20260905151028 | 89 | 245 | 4.0 | 7.0 | 0.00 | 0.00 | 0.00 | 55 | 1015.0 |
| 20260905150526 | 89 | 233 | 4.0 | 8.0 | 0.00 | 0.00 | 0.00 | 55 | 1015.0 |
| 20260905150025 | 88 | 232 | 4.0 | 10.0 | 0.00 | 0.00 | 0.00 | 55 | 1015.1 |
| 20260905145522 | 88 | 232 | 5.0 | 10.0 | 0.00 | 0.00 | 0.00 | 55 | 1015.0 |
| 20260905145021 | 88 | 256 | 3.0 | 7.0 | 0.00 | 0.00 | 0.00 | 58 | 1015.0 |
| 20260905144519 | 87 | 230 | 4.0 | 8.0 | 0.00 | 0.00 | 0.00 | 58 | 1015.1 |
| 20260905144017 | 87 | 231 | 4.0 | 8.0 | 0.00 | 0.00 | 0.00 | 59 | 1015.2 |
| 20260905143535 | 87 | 222 | 3.0 | 7.0 | 0.00 | 0.00 | 0.00 | 61 | 1015.1 |
| 20260905143033 | 87 | 222 | 3.0 | 8.0 | 0.00 | 0.00 | 0.00 | 62 | 1015.2 |
| 20260905142532 | 87 | 221 | 3.0 | 9.0 | 0.00 | 0.00 | 0.00 | 63 | 1015.2 |
| 20260905142030 | 86 | 234 | 1.0 | 4.0 | 0.00 | 0.00 | 0.00 | 64 | 1015.1 |
| 20260905141528 | 85 | 227 | 4.0 | 9.0 | 0.00 | 0.00 | 0.00 | 65 | 1015.1 |
| 20260905141027 | 85 | 224 | 4.0 | 8.0 | 0.00 | 0.00 | 0.00 | 67 | 1015.1 |
| 20260905140525 | 85 | 217 | 3.0 | 7.0 | 0.00 | 0.00 | 0.00 | 68 | 1015.1 |
| 20260905140024 | 85 | 225 | 4.0 | 8.0 | 0.00 | 0.00 | 0.00 | 69 | 1014.9 |
| 20260905135522 | 84 | 216 | 3.0 | 7.0 | 0.00 | 0.00 | 0.00 | 70 | 1014.9 |
| 20260905135021 | 84 | 225 | 3.0 | 7.0 | 0.00 | 0.00 | 0.00 | 71 | 1014.9 |
| 20260905134519 | 84 | 222 | 4.0 | 8.0 | 0.00 | 0.00 | 0.00 | 71 | 1014.9 |
| 20260905134017 | 83 | 231 | 4.0 | 7.0 | 0.00 | 0.00 | 0.00 | 72 | 1014.8 |
| 20260905133515 | 83 | 236 | 4.0 | 6.0 | 0.00 | 0.00 | 0.00 | 72 | 1014.7 |
| 20260905133034 | 83 | 220 | 3.0 | 7.0 | 0.00 | 0.00 | 0.00 | 73 | 1014.8 |
| 20260905132532 | 83 | 211 | 3.0 | 5.0 | 0.00 | 0.00 | 0.00 | 73 | 1014.8 |
| 20260905132030 | 82 | 218 | 2.0 | 9.0 | 0.00 | 0.00 | 0.00 | 74 | 1014.7 |
| 20260905131528 | 82 | 226 | 3.0 | 6.0 | 0.00 | 0.00 | 0.00 | 74 | 1014.7 |
| 20260905131046 | 82 | 220 | 3.0 | 6.0 | 0.00 | 0.00 | 0.00 | 75 | 1014.6 |
| 20260905130524 | 81 | 213 | 2.0 | 6.0 | 0.00 | 0.00 | 0.00 | 76 | 1014.7 |
| 20260905130022 | 81 | 216 | 2.0 | 5.0 | 0.00 | 0.00 | 0.00 | 76 | 1014.5 |
| 20260905125601 | 81 | 222 | 2.0 | 4.0 | 0.00 | 0.00 | 0.00 | 77 | 1014.5 |
| 20260905125019 | 80 | 201 | 3.0 | 5.0 | 0.00 | 0.00 | 0.00 | 78 | 1014.5 |
| 20260905124517 | 80 | 218 | 2.0 | 5.0 | 0.00 | 0.00 | 0.00 | 78 | 1014.3 |
| 20260905124035 | 80 | 212 | 2.0 | 4.0 | 0.00 | 0.00 | 0.00 | 79 | 1014.3 |
| 20260905123533 | 79 | 217 | 2.0 | 3.0 | 0.00 | 0.00 | 0.00 | 79 | 1014.3 |
| 20260905123030 | 79 | 169 | 1.0 | 3.0 | 0.00 | 0.00 | 0.00 | 79 | 1014.3 |
| 20260905122528 | 79 | 188 | 1.0 | 2.0 | 0.00 | 0.00 | 0.00 | 79 | 1014.3 |
| 20260905122026 | 79 | 197 | 1.0 | 4.0 | 0.00 | 0.00 | 0.00 | 79 | 1014.1 |
| 20260905121525 | 79 | 203 | 1.0 | 3.0 | 0.00 | 0.00 | 0.00 | 79 | 1014.1 |
| 20260905121042 | 79 | 172 | 1.0 | 3.0 | 0.00 | 0.00 | 0.00 | 79 | 1014.1 |
| 20260905120520 | 79 | 195 | 1.0 | 3.0 | 0.00 | 0.00 | 0.00 | 79 | 1014.2 |
| 20260905120019 | 79 | 315 | 1.0 | 3.0 | 0.00 | 0.00 | 0.00 | 79 | 1014.3 |
| 20260905115517 | 80 | 260 | 1.0 | 4.0 | 0.00 | 0.00 | 0.00 | 78 | 1014.1 |
| 20260905115016 | 80 | 227 | 1.0 | 4.0 | 0.00 | 0.00 | 0.00 | 78 | 1014.1 |
| 20260905114554 | 80 | 202 | 2.0 | 4.0 | 0.00 | 0.00 | 0.00 | 78 | 1013.9 |
| 20260905114033 | 80 | 216 | 2.0 | 5.0 | 0.00 | 0.00 | 0.00 | 78 | 1013.8 |
| 20260905113530 | 80 | 201 | 2.0 | 4.0 | 0.00 | 0.00 | 0.00 | 78 | 1013.8 |
| 20260905113028 | 80 | 199 | 1.0 | 4.0 | 0.00 | 0.00 | 0.00 | 77 | 1013.8 |
| 20260905112526 | 80 | 202 | 2.0 | 4.0 | 0.00 | 0.00 | 0.00 | 77 | 1013.6 |
| 20260905112044 | 80 | 190 | 2.0 | 4.0 | 0.00 | 0.00 | 0.00 | 77 | 1013.8 |
| 20260905111522 | 80 | 209 | 1.0 | 4.0 | 0.00 | 0.00 | 0.00 | 78 | 1013.7 |
| 20260905111019 | 80 | 193 | 2.0 | 3.0 | 0.00 | 0.00 | 0.00 | 78 | 1013.8 |
| 20260905110537 | 80 | 257 | 1.0 | 4.0 | 0.00 | 0.00 | 0.00 | 78 | 1013.8 |
| 20260905110016 | 80 | 338 | 2.0 | 4.0 | 0.00 | 0.00 | 0.00 | 78 | 1013.7 |
| 20260905105533 | 80 | 194 | 2.0 | 4.0 | 0.00 | 0.00 | 0.00 | 77 | 1013.8 |
| 20260905105031 | 80 | 246 | 1.0 | 3.0 | 0.00 | 0.00 | 0.00 | 77 | 1014.0 |
| 20260905104529 | 80 | 195 | 1.0 | 3.0 | 0.00 | 0.00 | 0.00 | 77 | 1014.0 |
| 20260905104028 | 80 | 189 | 1.0 | 3.0 | 0.00 | 0.00 | 0.00 | 77 | 1014.1 |
| 20260905103526 | 80 | 192 | 1.0 | 3.0 | 0.00 | 0.00 | 0.00 | 76 | 1014.1 |
| 20260905103024 | 81 | 169 | 1.0 | 2.0 | 0.00 | 0.00 | 0.00 | 76 | 1014.2 |
| 20260905102523 | 81 | 177 | 1.0 | 2.0 | 0.00 | 0.00 | 0.00 | 76 | 1014.2 |
| 20260905102022 | 81 | 187 | 1.0 | 2.0 | 0.00 | 0.00 | 0.00 | 75 | 1014.1 |
| 20260905101521 | 81 | 196 | 1.0 | 2.0 | 0.00 | 0.00 | 0.00 | 75 | 1014.0 |
| 20260905101019 | 81 | 210 | 1.0 | 6.0 | 0.00 | 0.00 | 0.00 | 74 | 1014.0 |
| 20260905100518 | 81 | 220 | 2.0 | 5.0 | 0.00 | 0.00 | 0.00 | 74 | 1013.9 |
| 20260905100036 | 82 | 220 | 2.0 | 4.0 | 0.00 | 0.00 | 0.00 | 74 | 1013.8 |
| 20260905095554 | 82 | 219 | 3.0 | 6.0 | 0.00 | 0.00 | 0.00 | 73 | 1013.9 |
| 20260905095032 | 82 | 215 | 4.0 | 10.0 | 0.00 | 0.00 | 0.00 | 72 | 1013.8 |
| 20260905094530 | 82 | 218 | 4.0 | 8.0 | 0.00 | 0.00 | 0.00 | 72 | 1013.7 |
| 20260905094027 | 82 | 220 | 4.0 | 8.0 | 0.00 | 0.00 | 0.00 | 72 | 1013.7 |
| 20260905093525 | 82 | 219 | 4.0 | 8.0 | 0.00 | 0.00 | 0.00 | 72 | 1013.5 |
| 20260905093023 | 82 | 222 | 2.0 | 10.0 | 0.00 | 0.00 | 0.00 | 72 | 1013.5 |
| 20260905092601 | 82 | 224 | 3.0 | 6.0 | 0.00 | 0.00 | 0.00 | 73 | 1013.6 |
| 20260905092019 | 82 | 214 | 3.0 | 7.0 | 0.00 | 0.00 | 0.00 | 73 | 1013.7 |
| 20260905091516 | 82 | 208 | 2.0 | 4.0 | 0.00 | 0.00 | 0.00 | 73 | 1013.8 |
| 20260905091034 | 82 | 222 | 2.0 | 4.0 | 0.00 | 0.00 | 0.00 | 72 | 1013.7 |
| 20260905090533 | 82 | 216 | 2.0 | 5.0 | 0.00 | 0.00 | 0.00 | 72 | 1013.6 |
| 20260905090030 | 82 | 242 | 1.0 | 4.0 | 0.00 | 0.00 | 0.00 | 72 | 1013.7 |
| 20260905085528 | 83 | 219 | 2.0 | 5.0 | 0.00 | 0.00 | 0.00 | 71 | 1013.6 |
| 20260905085026 | 83 | 223 | 2.0 | 4.0 | 0.00 | 0.00 | 0.00 | 70 | 1013.6 |
| 20260905084524 | 83 | 232 | 2.0 | 4.0 | 0.00 | 0.00 | 0.00 | 70 | 1013.7 |
| 20260905084021 | 83 | 229 | 2.0 | 5.0 | 0.00 | 0.00 | 0.00 | 70 | 1013.5 |
| 20260905083519 | 83 | 222 | 3.0 | 6.0 | 0.00 | 0.00 | 0.00 | 69 | 1013.5 |
| 20260905083017 | 83 | 214 | 2.0 | 5.0 | 0.00 | 0.00 | 0.00 | 69 | 1013.6 |
| 20260905082515 | 83 | 221 | 2.0 | 4.0 | 0.00 | 0.00 | 0.00 | 69 | 1013.7 |
| 20260905082034 | 83 | 229 | 2.0 | 5.0 | 0.00 | 0.00 | 0.00 | 69 | 1013.5 |
| 20260905081533 | 83 | 216 | 3.0 | 7.0 | 0.00 | 0.00 | 0.00 | 69 | 1013.4 |
| 20260905081031 | 83 | 219 | 2.0 | 6.0 | 0.00 | 0.00 | 0.00 | 68 | 1013.5 |
| 20260905080529 | 83 | 222 | 1.0 | 4.0 | 0.00 | 0.00 | 0.00 | 67 | 1013.5 |
| 20260905080027 | 84 | 215 | 2.0 | 4.0 | 0.00 | 0.00 | 0.00 | 67 | 1013.4 |
| 20260905075545 | 84 | 226 | 2.0 | 5.0 | 0.00 | 0.00 | 0.00 | 66 | 1013.5 |
| 20260905075023 | 84 | 226 | 3.0 | 5.0 | 0.00 | 0.00 | 0.00 | 66 | 1013.4 |
| 20260905074520 | 84 | 239 | 2.0 | 6.0 | 0.00 | 0.00 | 0.00 | 65 | 1013.4 |
| 20260905074018 | 84 | 220 | 2.0 | 6.0 | 0.00 | 0.00 | 0.00 | 66 | 1013.4 |
| 20260905073516 | 84 | 232 | 1.0 | 4.0 | 0.00 | 0.00 | 0.00 | 66 | 1013.6 |
| 20260905073034 | 84 | 241 | 1.0 | 3.0 | 0.00 | 0.00 | 0.00 | 65 | 1013.6 |
| 20260905072532 | 84 | 245 | 1.0 | 4.0 | 0.00 | 0.00 | 0.00 | 65 | 1013.7 |
| 20260905072030 | 84 | 211 | 2.0 | 6.0 | 0.00 | 0.00 | 0.00 | 65 | 1013.6 |
| 20260905071529 | 85 | 228 | 2.0 | 6.0 | 0.00 | 0.00 | 0.00 | 65 | 1013.7 |
| 20260905071027 | 85 | 221 | 1.0 | 5.0 | 0.00 | 0.00 | 0.00 | 64 | 1013.7 |
| 20260905070525 | 85 | 218 | 2.0 | 7.0 | 0.00 | 0.00 | 0.00 | 64 | 1013.7 |
| 20260905070043 | 85 | 231 | 2.0 | 5.0 | 0.00 | 0.00 | 0.00 | 65 | 1013.7 |
| 20260905065521 | 85 | 218 | 1.0 | 4.0 | 0.00 | 0.00 | 0.00 | 65 | 1013.7 |
| 20260905065019 | 85 | 225 | 2.0 | 4.0 | 0.00 | 0.00 | 0.00 | 65 | 1013.8 |
| 20260905064518 | 85 | 232 | 2.0 | 7.0 | 0.00 | 0.00 | 0.00 | 65 | 1013.8 |
| 20260905064016 | 85 | 237 | 1.0 | 3.0 | 0.00 | 0.00 | 0.00 | 64 | 1013.9 |
| 20260905063534 | 85 | 211 | 1.0 | 4.0 | 0.00 | 0.00 | 0.00 | 64 | 1013.9 |
| 20260905063033 | 85 | 228 | 3.0 | 5.0 | 0.00 | 0.00 | 0.00 | 63 | 1013.9 |
| 20260905062531 | 85 | 207 | 3.0 | 6.0 | 0.00 | 0.00 | 0.00 | 63 | 1014.0 |
| 20260905062029 | 86 | 220 | 3.0 | 6.0 | 0.00 | 0.00 | 0.00 | 63 | 1013.9 |
| 20260905061528 | 86 | 219 | 2.0 | 6.0 | 0.00 | 0.00 | 0.00 | 62 | 1013.8 |
| 20260905061046 | 86 | 211 | 2.0 | 6.0 | 0.00 | 0.00 | 0.00 | 62 | 1013.8 |
| 20260905060524 | 86 | 217 | 2.0 | 6.0 | 0.00 | 0.00 | 0.00 | 62 | 1013.7 |
| 20260905060021 | 86 | 225 | 2.0 | 6.0 | 0.00 | 0.00 | 0.00 | 62 | 1013.8 |
| 20260905055539 | 86 | 206 | 3.0 | 6.0 | 0.00 | 0.00 | 0.00 | 62 | 1013.8 |
| 20260905055037 | 86 | 232 | 2.0 | 5.0 | 0.00 | 0.00 | 0.00 | 62 | 1013.9 |
| 20260905054516 | 86 | 216 | 3.0 | 9.0 | 0.00 | 0.00 | 0.00 | 62 | 1013.7 |
| 20260905054053 | 86 | 212 | 2.0 | 5.0 | 0.00 | 0.00 | 0.00 | 61 | 1013.6 |
| 20260905053531 | 86 | 208 | 2.0 | 4.0 | 0.00 | 0.00 | 0.00 | 61 | 1013.4 |
| 20260905053050 | 87 | 201 | 2.0 | 6.0 | 0.00 | 0.00 | 0.00 | 60 | 1013.4 |
| 20260905052528 | 87 | 209 | 3.0 | 6.0 | 0.00 | 0.00 | 0.00 | 60 | 1013.5 |
| 20260905052025 | 87 | 206 | 2.0 | 4.0 | 0.00 | 0.00 | 0.00 | 59 | 1013.6 |
| 20260905051543 | 87 | 212 | 2.0 | 5.0 | 0.00 | 0.00 | 0.00 | 59 | 1013.5 |
| 20260905051102 | 87 | 199 | 3.0 | 6.0 | 0.00 | 0.00 | 0.00 | 59 | 1013.4 |
| 20260905050520 | 87 | 200 | 2.0 | 5.0 | 0.00 | 0.00 | 0.00 | 58 | 1013.5 |
| 20260905050018 | 88 | 198 | 3.0 | 6.0 | 0.00 | 0.00 | 0.00 | 58 | 1013.5 |
| 20260905045516 | 88 | 210 | 2.0 | 4.0 | 0.00 | 0.00 | 0.00 | 57 | 1013.6 |
| 20260905045034 | 88 | 188 | 2.0 | 7.0 | 0.00 | 0.00 | 0.00 | 57 | 1013.4 |
| 20260905044533 | 88 | 202 | 3.0 | 9.0 | 0.00 | 0.00 | 0.00 | 57 | 1013.5 |
| 20260905044031 | 88 | 202 | 2.0 | 6.0 | 0.00 | 0.00 | 0.00 | 56 | 1013.5 |
| 20260905043529 | 88 | 189 | 2.0 | 6.0 | 0.00 | 0.00 | 0.00 | 56 | 1013.5 |
| 20260905043027 | 88 | 202 | 3.0 | 6.0 | 0.00 | 0.00 | 0.00 | 56 | 1013.4 |
| 20260905042525 | 89 | 208 | 3.0 | 6.0 | 0.00 | 0.00 | 0.00 | 55 | 1013.4 |
| 20260905042025 | 89 | 211 | 3.0 | 6.0 | 0.00 | 0.00 | 0.00 | 55 | 1013.4 |
| 20260905041522 | 89 | 192 | 3.0 | 6.0 | 0.00 | 0.00 | 0.00 | 55 | 1013.5 |
| 20260905041020 | 89 | 199 | 2.0 | 6.0 | 0.00 | 0.00 | 0.00 | 54 | 1013.5 |
| 20260905040519 | 89 | 211 | 2.0 | 8.0 | 0.00 | 0.00 | 0.00 | 54 | 1013.3 |
| 20260905040018 | 89 | 219 | 2.0 | 4.0 | 0.00 | 0.00 | 0.00 | 54 | 1013.4 |
| 20260905035516 | 89 | 210 | 3.0 | 6.0 | 0.00 | 0.00 | 0.00 | 54 | 1013.4 |
| 20260905035034 | 90 | 184 | 3.0 | 7.0 | 0.00 | 0.00 | 0.00 | 54 | 1013.3 |
| 20260905034532 | 90 | 185 | 3.0 | 7.0 | 0.00 | 0.00 | 0.00 | 53 | 1013.4 |
| 20260905034029 | 90 | 188 | 4.0 | 7.0 | 0.00 | 0.00 | 0.00 | 53 | 1013.4 |
| 20260905033528 | 90 | 181 | 4.0 | 10.0 | 0.00 | 0.00 | 0.00 | 53 | 1013.4 |
| 20260905033025 | 90 | 181 | 3.0 | 7.0 | 0.00 | 0.00 | 0.00 | 52 | 1013.3 |
| 20260905032524 | 90 | 153 | 3.0 | 9.0 | 0.00 | 0.00 | 0.00 | 52 | 1013.3 |
| 20260905032022 | 90 | 176 | 3.0 | 8.0 | 0.00 | 0.00 | 0.00 | 51 | 1013.1 |
| 20260905031520 | 90 | 167 | 3.0 | 5.0 | 0.00 | 0.00 | 0.00 | 50 | 1013.1 |
| 20260905031038 | 91 | 144 | 2.0 | 6.0 | 0.00 | 0.00 | 0.00 | 49 | 1013.1 |
| 20260905030516 | 91 | 170 | 2.0 | 4.0 | 0.00 | 0.00 | 0.00 | 49 | 1013.1 |
| 20260905030034 | 91 | 171 | 2.0 | 5.0 | 0.00 | 0.00 | 0.00 | 48 | 1013.1 |
| 20260905025532 | 91 | 171 | 2.0 | 4.0 | 0.00 | 0.00 | 0.00 | 48 | 1012.9 |
| 20260905025030 | 91 | 155 | 2.0 | 6.0 | 0.00 | 0.00 | 0.00 | 48 | 1013.0 |
| 20260905024527 | 91 | 151 | 2.0 | 6.0 | 0.00 | 0.00 | 0.00 | 48 | 1012.9 |
| 20260905024026 | 91 | 169 | 2.0 | 6.0 | 0.00 | 0.00 | 0.00 | 48 | 1012.9 |
| 20260905023524 | 92 | 147 | 3.0 | 7.0 | 0.00 | 0.00 | 0.00 | 48 | 1013.0 |
| 20260905023022 | 92 | 146 | 2.0 | 7.0 | 0.00 | 0.00 | 0.00 | 48 | 1012.9 |
| 20260905022521 | 92 | 144 | 3.0 | 8.0 | 0.00 | 0.00 | 0.00 | 48 | 1012.8 |
| 20260905022019 | 92 | 166 | 2.0 | 5.0 | 0.00 | 0.00 | 0.00 | 48 | 1012.9 |
| 20260905021518 | 92 | 157 | 2.0 | 6.0 | 0.00 | 0.00 | 0.00 | 48 | 1012.8 |
| 20260905021016 | 92 | 153 | 2.0 | 4.0 | 0.00 | 0.00 | 0.00 | 49 | 1012.6 |
| 20260905020515 | 92 | 141 | 2.0 | 4.0 | 0.00 | 0.00 | 0.00 | 49 | 1012.4 |
| 20260905020033 | 92 | 158 | 2.0 | 5.0 | 0.00 | 0.00 | 0.00 | 49 | 1012.3 |
| 20260905015531 | 92 | 142 | 2.0 | 4.0 | 0.00 | 0.00 | 0.00 | 49 | 1012.2 |
| 20260905015029 | 93 | 148 | 3.0 | 8.0 | 0.00 | 0.00 | 0.00 | 48 | 1012.1 |
| 20260905014527 | 93 | 129 | 4.0 | 9.0 | 0.00 | 0.00 | 0.00 | 48 | 1012.0 |
| 20260905014025 | 93 | 149 | 3.0 | 7.0 | 0.00 | 0.00 | 0.00 | 48 | 1012.0 |
| 20260905013523 | 93 | 134 | 4.0 | 9.0 | 0.00 | 0.00 | 0.00 | 48 | 1012.0 |
| 20260905013021 | 93 | 133 | 4.0 | 12.0 | 0.00 | 0.00 | 0.00 | 48 | 1011.8 |
| 20260905012519 | 93 | 131 | 3.0 | 9.0 | 0.00 | 0.00 | 0.00 | 48 | 1011.8 |
| 20260905012017 | 93 | 120 | 4.0 | 9.0 | 0.00 | 0.00 | 0.00 | 47 | 1011.8 |
| 20260905011546 | 94 | 132 | 3.0 | 9.0 | 0.00 | 0.00 | 0.00 | 47 | 1011.7 |
| 20260905011032 | 94 | 132 | 3.0 | 9.0 | 0.00 | 0.00 | 0.00 | 47 | 1011.6 |
| 20260905010530 | 94 | 121 | 4.0 | 7.0 | 0.00 | 0.00 | 0.00 | 46 | 1011.7 |
| 20260905010048 | 95 | 145 | 5.0 | 9.0 | 0.00 | 0.00 | 0.00 | 46 | 1011.6 |
| 20260905005538 | 95 | 166 | 3.0 | 8.0 | 0.00 | 0.00 | 0.00 | 45 | 1011.5 |
| 20260905005044 | 95 | 150 | 4.0 | 10.0 | 0.00 | 0.00 | 0.00 | 44 | 1011.3 |
| 20260905004522 | 95 | 146 | 3.0 | 7.0 | 0.00 | 0.00 | 0.00 | 44 | 1011.4 |
| 20260905004020 | 96 | 143 | 3.0 | 8.0 | 0.00 | 0.00 | 0.00 | 43 | 1011.4 |
| 20260905003518 | 96 | 146 | 3.0 | 6.0 | 0.00 | 0.00 | 0.00 | 43 | 1011.3 |
| 20260905003017 | 96 | 153 | 3.0 | 6.0 | 0.00 | 0.00 | 0.00 | 42 | 1011.2 |
| 20260905002535 | 97 | 152 | 3.0 | 7.0 | 0.00 | 0.00 | 0.00 | 42 | 1011.3 |
| 20260905002033 | 97 | 167 | 3.0 | 6.0 | 0.00 | 0.00 | 0.00 | 41 | 1011.2 |
| 20260905001551 | 97 | 165 | 2.0 | 6.0 | 0.00 | 0.00 | 0.00 | 41 | 1011.1 |
| 20260905001028 | 97 | 148 | 3.0 | 9.0 | 0.00 | 0.00 | 0.00 | 41 | 1011.0 |
| 20260905000525 | 97 | 144 | 2.0 | 6.0 | 0.00 | 0.00 | 0.00 | 41 | 1011.1 |
| 20260905000043 | 97 | 132 | 3.0 | 7.0 | 0.00 | 0.00 | 0.00 | 40 | 1010.9 |
| 20260904235521 | 98 | 121 | 4.0 | 10.0 | 0.00 | 0.00 | 0.00 | 40 | 1011.0 |
| 20260904235019 | 98 | 123 | 4.0 | 9.0 | 0.00 | 0.00 | 0.00 | 39 | 1011.0 |
| 20260904234517 | 98 | 135 | 3.0 | 8.0 | 0.00 | 0.00 | 0.00 | 39 | 1011.1 |
| 20260904234015 | 98 | 131 | 3.0 | 8.0 | 0.00 | 0.00 | 0.00 | 39 | 1011.0 |
| 20260904233553 | 99 | 105 | 3.0 | 7.0 | 0.00 | 0.00 | 0.00 | 39 | 1010.9 |
| 20260904233032 | 98 | 120 | 3.0 | 9.0 | 0.00 | 0.00 | 0.00 | 39 | 1011.0 |
| 20260904232529 | 98 | 119 | 4.0 | 9.0 | 0.00 | 0.00 | 0.00 | 39 | 1011.0 |
| 20260904232027 | 98 | 140 | 3.0 | 8.0 | 0.00 | 0.00 | 0.00 | 39 | 1011.1 |
| 20260904231525 | 99 | 124 | 4.0 | 8.0 | 0.00 | 0.00 | 0.00 | 39 | 1011.1 |
| 20260904231023 | 99 | 161 | 2.0 | 5.0 | 0.00 | 0.00 | 0.00 | 39 | 1011.2 |
| 20260904230521 | 99 | 147 | 3.0 | 6.0 | 0.00 | 0.00 | 0.00 | 39 | 1011.2 |
| 20260904230019 | 100 | 177 | 4.0 | 7.0 | 0.00 | 0.00 | 0.00 | 39 | 1011.0 |
| 20260904225516 | 100 | 152 | 4.0 | 11.0 | 0.00 | 0.00 | 0.00 | 39 | 1011.1 |
| 20260904225034 | 100 | 128 | 4.0 | 8.0 | 0.00 | 0.00 | 0.00 | 39 | 1011.2 |
| 20260904224533 | 100 | 131 | 4.0 | 9.0 | 0.00 | 0.00 | 0.00 | 38 | 1011.3 |
| 20260904224030 | 100 | 161 | 3.0 | 6.0 | 0.00 | 0.00 | 0.00 | 38 | 1011.4 |
| 20260904223529 | 99 | 121 | 5.0 | 10.0 | 0.00 | 0.00 | 0.00 | 39 | 1011.4 |
| 20260904223028 | 101 | 128 | 5.0 | 13.0 | 0.00 | 0.00 | 0.00 | 38 | 1011.3 |
| 20260904222526 | 101 | 142 | 4.0 | 8.0 | 0.00 | 0.00 | 0.00 | 38 | 1011.3 |
| 20260904222024 | 101 | 197 | 2.0 | 6.0 | 0.00 | 0.00 | 0.00 | 38 | 1011.3 |
| 20260904221542 | 101 | 191 | 2.0 | 6.0 | 0.00 | 0.00 | 0.00 | 38 | 1011.4 |
| 20260904221020 | 101 | 175 | 4.0 | 9.0 | 0.00 | 0.00 | 0.00 | 38 | 1011.5 |
| 20260904220518 | 100 | 152 | 3.0 | 6.0 | 0.00 | 0.00 | 0.00 | 38 | 1011.4 |
| 20260904220016 | 101 | 148 | 5.0 | 12.0 | 0.00 | 0.00 | 0.00 | 38 | 1011.4 |
| 20260904215555 | 100 | 139 | 4.0 | 10.0 | 0.00 | 0.00 | 0.00 | 39 | 1011.5 |
| 20260904215033 | 101 | 127 | 4.0 | 10.0 | 0.00 | 0.00 | 0.00 | 38 | 1011.6 |
| 20260904214551 | 101 | 139 | 3.0 | 7.0 | 0.00 | 0.00 | 0.00 | 38 | 1011.6 |
| 20260904214029 | 101 | 194 | 3.0 | 7.0 | 0.00 | 0.00 | 0.00 | 38 | 1011.6 |
| 20260904213528 | 101 | 167 | 4.0 | 9.0 | 0.00 | 0.00 | 0.00 | 38 | 1011.7 |
| 20260904213025 | 102 | 162 | 3.0 | 6.0 | 0.00 | 0.00 | 0.00 | 38 | 1011.7 |
| 20260904212544 | 102 | 211 | 4.0 | 9.0 | 0.00 | 0.00 | 0.00 | 38 | 1011.7 |
| 20260904212022 | 101 | 195 | 4.0 | 8.0 | 0.00 | 0.00 | 0.00 | 39 | 1011.7 |
| 20260904211521 | 101 | 189 | 3.0 | 6.0 | 0.00 | 0.00 | 0.00 | 39 | 1011.8 |
| 20260904211019 | 101 | 150 | 4.0 | 10.0 | 0.00 | 0.00 | 0.00 | 39 | 1012.0 |
| 20260904210517 | 101 | 187 | 3.0 | 6.0 | 0.00 | 0.00 | 0.00 | 38 | 1012.0 |
| 20260904210035 | 101 | 192 | 3.0 | 7.0 | 0.00 | 0.00 | 0.00 | 39 | 1012.1 |
| 20260904205533 | 100 | 190 | 4.0 | 9.0 | 0.00 | 0.00 | 0.00 | 40 | 1012.3 |
| 20260904205032 | 100 | 129 | 3.0 | 9.0 | 0.00 | 0.00 | 0.00 | 41 | 1012.4 |
| 20260904204530 | 100 | 123 | 3.0 | 9.0 | 0.00 | 0.00 | 0.00 | 41 | 1012.3 |
| 20260904204108 | 100 | 164 | 3.0 | 11.0 | 0.00 | 0.00 | 0.00 | 42 | 1012.4 |
| 20260904203526 | 100 | 181 | 4.0 | 9.0 | 0.00 | 0.00 | 0.00 | 42 | 1012.3 |